"datetime","# probes","# resolvers","can_ipv6","can_ipv6_prbs","can_tcp","can_tcp_prbs","can_tcp6","can_tcp6_prbs","does_ecs","does_ecs_prbs","does_flagday","does_flagday_prbs","does_rov4","does_rov4_prbs","does_rov6","does_rov6_prbs","does_qnamemin","doesnt_qnamemin","does_qnamemin_prbs","doesnt_qnamemin_prbs","does_nxdomain","doesnt_nxdomain","does_nxdomain_prbs","doesnt_nxdomain_prbs","has_ta_19036","hasnt_ta_19036","has_ta_19036_prbs","hasnt_ta_19036_prbs","has_ta_20326","hasnt_ta_20326","has_ta_20326_prbs","hasnt_ta_20326_prbs","can_rsamd5","cannot_rsamd5","broken_rsamd5","can_rsamd5_prbs","cannot_rsamd5_prbs","broken_rsamd5_prbs","can_dsa","cannot_dsa","broken_dsa","can_dsa_prbs","cannot_dsa_prbs","broken_dsa_prbs","can_rsasha1","cannot_rsasha1","broken_rsasha1","can_rsasha1_prbs","cannot_rsasha1_prbs","broken_rsasha1_prbs","can_dsansec3","cannot_dsansec3","broken_dsansec3","can_dsansec3_prbs","cannot_dsansec3_prbs","broken_dsansec3_prbs","can_rsansec3","cannot_rsansec3","broken_rsansec3","can_rsansec3_prbs","cannot_rsansec3_prbs","broken_rsansec3_prbs","can_rsasha256","cannot_rsasha256","broken_rsasha256","can_rsasha256_prbs","cannot_rsasha256_prbs","broken_rsasha256_prbs","can_rsasha512","cannot_rsasha512","broken_rsasha512","can_rsasha512_prbs","cannot_rsasha512_prbs","broken_rsasha512_prbs","can_eccgost","cannot_eccgost","broken_eccgost","can_eccgost_prbs","cannot_eccgost_prbs","broken_eccgost_prbs","can_ecdsa256","cannot_ecdsa256","broken_ecdsa256","can_ecdsa256_prbs","cannot_ecdsa256_prbs","broken_ecdsa256_prbs","can_ecdsa384","cannot_ecdsa384","broken_ecdsa384","can_ecdsa384_prbs","cannot_ecdsa384_prbs","broken_ecdsa384_prbs","can_ed25519","cannot_ed25519","broken_ed25519","can_ed25519_prbs","cannot_ed25519_prbs","broken_ed25519_prbs","can_ed448","cannot_ed448","broken_ed448","can_ed448_prbs","cannot_ed448_prbs","broken_ed448_prbs","can_gost","cannot_gost","broken_gost","can_gost_prbs","cannot_gost_prbs","broken_gost_prbs","can_sha384","cannot_sha384","broken_sha384","can_sha384_prbs","cannot_sha384_prbs","broken_sha384_prbs","is_internal","is_forwarding","is_external","is_internal_prbs","is_forwarding_prbs","is_external_prbs"
2019-01-28T23:59:54Z,22,31,27,19,31,22,27,19,0,5,31,22,0,0,0,0,20,11,13,14,0,31,0,22,0,0,0,0,0,0,0,0,1,30,0,2,22,3,3,28,0,9,20,0,25,6,0,18,7,0,4,27,0,9,19,0,25,6,0,19,7,0,25,6,0,19,7,0,25,6,0,19,7,0,3,28,0,7,20,0,25,6,0,18,7,0,25,6,0,18,7,0,23,8,0,14,11,0,0,31,0,0,22,0,1,30,0,8,22,0,25,6,0,18,7,0,7,8,16,12,7,11
2019-01-29T23:59:56Z,24,36,31,20,36,24,31,20,0,4,36,24,0,0,0,0,24,12,15,15,0,36,0,24,0,3,0,2,3,0,2,0,1,35,0,2,23,3,6,30,0,10,20,0,30,6,0,21,7,0,3,33,0,9,22,0,30,6,0,21,7,0,30,6,0,21,7,0,30,6,0,21,7,0,2,34,0,7,22,0,30,6,0,21,7,0,30,6,0,21,7,0,23,13,0,15,15,0,0,36,0,0,24,0,2,34,0,8,22,0,30,6,0,20,7,0,10,8,18,15,6,11
2019-01-30T23:59:59Z,78,116,109,74,115,78,106,72,48,35,116,78,0,0,0,0,27,89,22,68,0,115,0,78,0,4,0,4,4,0,4,0,2,76,38,4,70,28,31,84,1,44,55,2,97,18,1,69,21,2,31,84,1,45,57,2,97,18,1,69,21,2,97,18,1,69,21,2,97,18,1,69,21,2,27,88,1,38,61,2,97,18,1,69,21,2,97,18,1,69,21,2,62,53,1,41,62,2,0,115,1,1,78,2,66,49,1,54,43,2,97,19,0,69,21,1,40,12,64,51,12,41
2019-01-31T23:59:59Z,109,161,149,104,161,109,146,100,54,35,161,109,0,0,0,0,31,130,27,98,0,161,0,109,0,5,0,4,5,0,4,0,3,122,36,5,100,26,69,92,0,76,56,1,135,26,0,101,21,1,69,92,0,76,56,1,135,26,0,101,21,1,135,26,0,101,21,1,135,26,0,101,21,1,61,100,0,68,65,1,135,26,0,101,21,1,135,26,0,101,21,1,63,98,0,41,92,1,1,160,0,1,109,1,98,63,0,83,50,1,135,26,0,101,21,1,76,16,69,83,14,44
2019-02-01T23:59:58Z,41,56,47,38,56,41,47,35,10,12,56,41,0,0,0,0,28,28,20,31,0,56,0,41,0,4,0,3,4,0,3,0,0,48,8,1,38,9,11,45,0,21,30,0,47,9,0,37,10,0,12,44,0,20,31,0,48,8,0,38,10,0,48,8,0,38,10,0,48,8,0,38,10,0,7,49,0,16,34,0,48,8,0,38,10,0,48,8,0,38,10,0,36,20,0,25,28,0,1,55,0,1,41,0,16,40,0,24,30,0,48,8,0,38,10,0,19,12,25,24,10,19
2019-02-02T23:59:58Z,33,46,41,31,46,33,41,30,6,10,46,33,0,0,0,0,29,17,20,22,0,46,0,33,0,4,0,3,4,0,3,0,0,42,4,1,31,6,8,38,0,17,27,0,40,6,0,30,8,0,6,40,0,14,29,0,40,6,0,30,8,0,40,6,0,30,8,0,40,6,0,30,8,0,2,44,0,11,31,0,40,6,0,30,8,0,40,6,0,30,8,0,30,16,0,21,22,0,1,45,0,1,33,0,5,41,0,15,29,0,40,6,0,30,8,0,12,13,21,17,11,15
2019-02-03T23:59:57Z,34,48,43,32,48,34,43,32,7,11,48,34,0,0,0,0,27,21,18,23,0,48,0,34,0,3,0,2,3,0,2,0,0,42,6,1,33,8,4,44,0,13,31,0,41,7,0,32,10,0,7,41,0,14,29,0,41,7,0,32,10,0,41,7,0,32,10,0,41,7,0,32,10,0,4,44,0,12,30,0,41,7,0,32,10,0,41,7,0,32,10,0,32,16,0,23,22,0,0,48,0,0,34,0,9,39,0,16,28,0,41,7,0,31,10,0,14,13,21,18,10,16
2019-02-04T23:59:58Z,40,52,46,37,52,40,45,36,11,14,52,40,0,0,0,0,27,25,18,29,0,52,0,40,0,4,0,3,4,0,3,0,2,39,11,3,37,13,9,43,0,21,33,0,47,5,0,38,11,0,9,43,0,21,34,0,47,5,0,38,11,0,47,5,0,38,11,0,47,5,0,38,11,0,6,46,0,18,36,0,47,5,0,38,11,0,47,5,0,38,11,0,34,18,0,24,28,0,1,51,0,1,40,0,17,35,0,25,30,0,47,5,0,38,11,0,16,10,26,25,8,22
2019-02-05T23:59:58Z,30,43,38,29,43,30,37,28,1,5,43,30,0,0,0,0,29,14,19,19,0,43,0,30,0,4,0,3,4,0,3,0,0,42,1,1,30,4,9,34,0,17,24,0,38,5,0,29,6,0,9,34,0,17,23,0,38,5,0,29,6,0,38,5,0,29,6,0,38,5,0,29,6,0,5,38,0,14,26,0,38,5,0,29,6,0,38,5,0,29,6,0,30,13,0,19,18,0,1,42,0,1,30,0,5,38,0,15,26,0,38,5,0,29,6,0,16,9,18,20,7,13
2019-02-06T23:59:59Z,34,48,43,32,48,34,42,32,8,13,48,34,0,0,0,0,28,20,19,24,1,47,1,34,0,3,0,2,3,0,2,0,0,41,7,1,33,10,5,43,0,14,32,0,41,7,0,31,10,0,2,46,0,13,34,0,41,7,0,32,10,0,41,7,0,32,10,0,41,7,0,32,10,0,1,47,0,11,34,0,41,7,0,32,10,0,41,7,0,32,10,0,32,16,0,24,23,0,0,48,0,0,34,0,9,39,0,18,29,0,41,7,0,31,10,0,11,12,25,20,10,20
2019-02-07T23:59:58Z,30,46,41,28,46,30,41,28,6,8,46,30,0,0,0,0,29,17,19,19,0,46,0,30,0,3,0,2,3,0,2,0,1,40,5,2,27,6,8,38,0,15,24,0,41,5,0,29,5,0,6,40,0,14,26,0,41,5,0,29,5,0,41,5,0,29,5,0,41,5,0,29,5,0,2,44,0,10,28,0,41,5,0,29,5,0,41,5,0,29,5,0,32,14,0,20,18,0,0,46,0,0,30,0,8,38,0,15,24,0,41,5,0,29,5,0,12,12,22,16,9,15
2019-02-08T23:59:55Z,32,46,37,27,46,32,37,27,7,11,46,32,0,0,0,0,24,22,16,24,0,46,0,32,0,3,0,2,3,0,2,0,2,37,7,3,28,9,4,42,0,13,29,0,37,9,0,28,9,0,3,43,0,14,30,0,37,9,0,29,9,0,37,9,0,29,9,0,37,9,0,29,9,0,1,45,0,10,31,0,37,9,0,28,9,0,37,9,0,28,9,0,29,17,0,19,22,0,0,46,0,0,32,0,8,38,0,17,27,0,37,9,0,28,9,0,13,11,22,18,9,18
2019-02-09T23:59:56Z,28,39,33,25,39,28,33,25,4,9,39,28,0,0,0,0,25,14,17,19,0,39,0,28,0,3,0,2,5,0,3,0,1,34,4,2,26,7,7,32,0,14,23,0,32,7,0,25,8,0,5,34,0,15,25,0,32,7,0,26,8,0,32,7,0,26,8,0,32,7,0,26,8,0,4,35,0,12,25,0,32,7,0,25,8,0,32,7,0,25,8,0,23,16,0,17,20,0,0,39,0,0,28,0,8,31,0,17,22,0,32,7,0,26,8,0,14,7,18,18,6,15
2019-02-10T23:59:53Z,31,44,39,29,44,31,39,29,7,12,44,31,0,0,0,0,27,17,18,21,0,44,0,31,0,5,0,3,5,0,3,0,0,38,6,1,29,9,5,39,0,15,29,0,37,7,0,28,8,0,2,42,0,13,30,0,37,7,0,28,8,0,37,7,0,28,8,0,37,7,0,28,8,0,2,42,0,10,30,0,37,7,0,29,8,0,37,7,0,29,8,0,28,16,0,21,20,0,0,44,0,0,31,0,8,36,0,16,26,0,37,7,0,29,8,0,13,9,22,17,8,18
2019-02-11T23:59:54Z,30,42,35,26,42,30,35,26,3,8,42,30,0,0,0,0,27,15,18,19,0,42,0,30,0,5,0,3,5,0,3,0,2,37,3,3,28,6,9,33,0,16,24,0,34,8,0,26,9,0,5,37,0,14,27,0,34,8,0,27,9,0,34,8,0,27,9,0,34,8,0,27,9,0,4,38,0,11,28,0,34,8,0,26,9,0,34,8,0,26,9,0,27,15,0,18,20,0,0,42,0,0,30,0,8,34,0,16,25,0,34,8,0,26,9,0,16,7,19,19,6,16
2019-02-12T23:59:56Z,30,42,35,26,42,30,35,26,1,6,42,30,0,0,0,0,30,12,20,18,0,42,0,30,0,5,0,3,5,0,3,0,0,41,1,1,30,4,5,37,0,13,26,0,33,9,0,25,10,0,4,38,0,13,28,0,33,9,0,26,10,0,33,9,0,26,10,0,33,9,0,26,10,0,2,40,0,9,29,0,33,9,0,25,10,0,33,9,0,25,10,0,25,17,0,16,20,0,0,42,0,0,30,0,3,39,0,11,29,0,33,9,0,25,10,0,14,8,20,18,8,15
2019-02-13T23:59:59Z,30,44,38,27,44,30,38,27,6,9,44,30,0,0,0,0,29,15,19,19,0,44,0,30,0,5,0,3,5,0,3,0,0,38,6,1,28,8,6,38,0,14,26,0,37,7,0,27,7,0,4,40,0,14,27,0,37,7,0,27,7,0,37,7,0,27,7,0,37,7,0,27,7,0,3,41,0,12,28,0,37,7,0,27,7,0,37,7,0,27,7,0,28,16,0,18,20,0,0,44,0,0,30,0,8,36,0,15,24,0,37,7,0,27,7,0,14,6,24,19,5,19
2019-02-14T23:59:59Z,28,43,37,25,43,28,37,25,5,8,43,28,0,0,0,0,28,15,18,18,0,43,0,28,0,5,0,3,5,0,3,0,1,37,5,3,24,6,5,38,0,12,24,0,36,7,0,26,7,0,5,38,0,12,24,0,36,7,0,25,7,0,36,7,0,25,7,0,36,7,0,25,7,0,4,39,0,10,25,0,36,7,0,25,7,0,36,7,0,25,7,0,28,15,0,17,17,0,0,43,0,0,28,0,9,34,0,15,22,0,36,7,0,26,7,0,14,6,23,16,5,16
2019-02-15T23:59:54Z,28,40,34,26,40,28,34,26,2,7,40,28,0,0,0,0,25,15,16,19,0,40,0,28,0,5,0,3,5,0,3,0,0,37,3,1,27,6,3,37,0,11,27,0,32,8,0,25,9,0,5,35,0,12,26,0,32,8,0,26,9,0,32,8,0,26,9,0,32,8,0,26,9,0,3,37,0,10,26,0,32,8,0,26,9,0,32,8,0,26,9,0,26,14,0,19,17,0,0,40,0,0,28,0,4,36,0,13,26,0,32,8,0,26,9,0,13,8,19,17,7,15
2019-02-16T23:59:59Z,30,42,36,28,42,30,36,28,5,10,42,30,0,0,0,0,26,16,17,20,0,42,0,30,0,5,0,3,5,0,3,0,0,37,5,1,29,8,4,38,0,13,27,0,34,8,0,27,9,0,4,38,0,14,28,0,34,8,0,27,9,0,34,8,0,28,9,0,34,8,0,27,9,0,3,39,0,11,28,0,34,8,0,28,9,0,34,8,0,28,9,0,28,14,0,20,20,0,0,42,0,0,30,0,9,33,0,17,24,0,34,8,0,28,9,0,14,6,22,18,6,18
2019-02-17T23:59:56Z,23,36,29,20,36,23,29,20,3,6,36,23,0,0,0,0,22,14,14,14,0,36,0,23,0,5,0,3,5,0,3,0,1,32,3,2,22,5,5,31,0,11,21,0,28,8,0,21,8,0,3,33,0,10,21,0,28,8,0,20,8,0,28,8,0,20,8,0,28,8,0,20,8,0,3,33,0,8,21,0,28,8,0,20,8,0,28,8,0,20,8,0,20,16,0,12,16,0,0,36,0,0,23,0,6,30,0,11,20,0,28,8,0,21,8,0,12,6,18,14,5,13
2019-02-18T23:59:56Z,27,40,33,25,39,27,33,25,4,9,40,27,0,0,0,0,24,15,15,18,0,39,0,27,0,5,0,3,5,0,3,0,0,35,4,1,26,7,4,35,0,13,25,0,31,8,0,24,8,0,3,36,0,12,26,0,31,8,0,24,8,0,31,8,0,25,8,0,31,8,0,25,8,0,2,37,0,10,26,0,31,8,0,24,8,0,31,8,0,24,8,0,26,13,0,17,17,0,0,39,0,0,27,0,6,33,0,13,22,0,31,8,0,25,8,0,12,7,20,16,6,17
2019-02-19T23:59:56Z,28,42,38,26,42,28,38,26,2,7,42,28,0,0,0,0,27,14,17,19,1,41,1,28,0,5,0,3,5,0,3,0,0,39,3,1,28,6,7,34,1,14,23,1,35,6,1,25,8,1,8,33,1,14,24,1,35,6,1,25,8,1,35,6,1,25,8,1,35,6,1,25,8,1,4,37,1,10,25,1,35,6,1,26,8,1,35,6,1,26,8,2,27,14,1,18,19,1,0,41,1,0,28,1,5,36,1,13,25,1,35,6,1,25,8,1,14,7,21,19,6,16
2019-02-20T23:59:56Z,25,41,36,23,41,25,36,23,3,6,41,25,0,0,0,0,27,14,17,16,0,41,0,25,0,5,0,3,5,0,3,0,0,38,3,1,25,4,4,37,0,11,24,0,34,7,0,22,7,0,3,38,0,12,24,0,34,7,0,23,7,0,34,7,0,23,7,0,34,7,0,23,7,0,2,39,0,8,24,0,34,7,0,23,7,0,34,7,0,23,7,0,28,13,0,16,17,0,0,41,0,0,25,0,5,36,0,11,23,0,34,7,0,22,7,0,12,7,22,15,6,15
2019-02-21T23:59:58Z,29,40,35,26,40,29,35,26,5,10,40,29,0,0,0,0,26,14,17,20,0,40,0,29,0,3,0,3,3,0,2,0,1,34,5,2,26,9,2,38,0,13,28,0,34,6,0,27,8,0,1,39,0,12,28,0,34,6,0,27,8,0,34,6,0,27,8,0,34,6,0,27,8,0,1,39,0,9,28,0,34,6,0,27,8,0,34,6,0,27,8,0,30,10,0,21,18,0,0,40,0,0,29,0,6,34,0,15,24,0,34,6,0,26,8,0,10,6,24,17,6,19
2019-02-22T23:59:52Z,31,44,37,28,44,31,37,27,5,10,44,31,0,0,0,0,26,18,17,22,0,44,0,31,0,4,0,3,4,0,3,0,1,38,5,2,25,9,5,39,0,13,27,0,37,7,0,29,7,0,3,41,0,11,29,0,37,7,0,29,7,0,37,7,0,29,7,0,37,7,0,29,7,0,1,43,0,8,30,0,37,7,0,28,7,0,37,7,0,28,7,0,32,12,0,22,16,0,1,43,0,1,31,0,6,38,0,15,25,0,37,7,0,29,7,0,13,8,23,16,7,18
2019-02-23T23:59:56Z,29,44,39,27,44,29,37,26,5,9,44,29,0,0,0,0,27,17,17,20,0,44,0,29,0,3,0,2,3,0,2,0,0,39,5,1,27,8,3,41,0,13,28,0,37,7,0,27,8,0,3,41,0,12,29,0,35,9,0,25,9,0,35,9,0,25,9,0,36,8,0,26,9,0,0,44,0,7,29,0,37,7,0,26,8,0,37,7,0,26,8,0,30,14,0,19,19,0,0,44,0,0,29,0,6,38,0,14,26,0,37,7,0,27,8,0,12,8,24,15,7,18
2019-02-24T23:59:55Z,25,36,31,23,36,25,29,22,2,6,36,25,0,0,0,0,27,9,18,14,0,36,0,25,0,5,0,3,4,0,3,0,0,34,2,1,25,5,3,33,0,11,23,0,30,6,0,23,6,0,3,33,0,11,23,0,30,6,0,23,6,0,30,6,0,23,6,0,30,6,0,23,6,0,2,34,0,8,24,0,30,6,0,23,6,0,30,6,0,23,6,0,23,13,0,15,16,0,0,36,0,0,25,0,5,31,0,11,21,0,30,6,0,23,6,0,13,4,19,16,5,15
2019-02-25T23:59:55Z,33,48,41,31,48,33,39,29,8,12,48,33,0,0,0,0,25,23,16,24,0,48,0,33,0,6,0,4,6,0,4,0,0,40,8,1,31,11,4,44,0,16,31,0,40,8,0,31,9,0,7,41,0,16,30,0,40,8,0,31,9,0,40,8,0,31,9,0,40,8,0,31,9,0,2,46,0,12,32,0,40,8,0,30,9,0,40,8,0,30,9,0,30,18,0,21,23,0,1,47,0,1,33,0,10,38,0,17,26,0,40,8,0,30,9,0,13,10,25,20,8,20
2019-02-26T23:59:54Z,29,45,39,26,45,29,37,25,3,7,45,29,0,0,0,0,28,17,18,19,0,45,0,29,0,3,0,2,3,0,2,0,1,41,3,2,27,5,5,40,0,14,27,0,36,9,0,25,8,0,3,42,0,13,27,0,36,9,0,26,8,0,36,9,0,26,8,0,36,9,0,26,8,0,2,43,0,9,27,0,36,9,0,25,8,0,36,9,0,25,8,0,27,18,0,17,20,0,0,45,0,0,29,0,4,41,0,11,26,0,36,9,0,25,8,0,14,9,22,17,7,16
2019-02-27T23:59:56Z,32,48,41,29,48,32,39,27,4,8,48,32,0,0,0,0,29,19,19,21,0,48,0,32,0,6,0,4,6,0,4,0,0,44,4,1,31,6,7,41,0,17,28,0,40,8,0,28,8,0,7,41,0,15,28,0,40,8,0,29,8,0,40,8,0,29,8,0,40,8,0,29,8,0,4,44,0,12,29,0,40,8,0,28,8,0,40,8,0,28,8,0,29,19,0,19,23,0,1,47,0,1,32,0,7,41,0,15,27,0,40,8,0,28,8,0,16,9,23,20,7,18
2019-02-28T23:59:53Z,28,44,38,25,44,28,38,25,6,8,44,28,0,0,0,0,25,19,17,19,0,44,0,28,0,5,0,3,5,0,3,0,1,37,6,2,24,6,6,38,0,13,25,0,37,7,0,25,7,0,8,36,0,13,24,0,37,7,0,25,7,0,37,7,0,25,7,0,37,7,0,25,7,0,4,40,0,9,25,0,37,7,0,25,7,0,37,7,0,25,7,0,29,15,0,18,17,0,0,44,0,0,28,0,9,35,0,13,23,0,37,7,0,26,7,0,13,9,22,15,7,16
2019-03-01T23:59:57Z,30,44,40,29,44,30,40,29,8,11,44,30,0,0,0,0,24,20,16,22,0,44,0,30,0,5,0,3,5,0,3,0,0,36,8,1,27,9,4,40,0,14,29,0,38,6,0,28,8,0,5,39,0,14,29,0,38,6,0,28,8,0,38,6,0,28,8,0,38,6,0,28,8,0,2,42,0,10,29,0,38,6,0,28,8,0,38,6,0,28,8,0,30,14,0,20,20,0,0,44,0,0,30,0,10,34,0,17,25,0,38,6,0,28,8,0,10,10,24,15,9,20
2019-03-02T23:59:54Z,30,43,36,27,43,30,36,27,3,8,43,30,0,0,0,0,26,17,18,20,0,43,0,30,0,5,0,3,5,0,3,0,1,39,3,2,27,6,6,37,0,15,27,0,35,8,0,27,8,0,8,35,0,16,26,0,35,8,0,28,8,0,35,8,0,28,8,0,35,8,0,28,8,0,5,38,0,12,26,0,35,8,0,28,8,0,35,8,0,28,8,0,27,16,0,20,19,0,0,43,0,0,30,0,6,37,0,15,25,0,35,8,0,27,8,0,14,10,19,17,8,17
2019-03-03T23:59:59Z,33,46,40,31,46,33,40,31,8,12,46,33,0,0,0,0,24,22,17,24,0,46,0,33,0,5,0,3,5,0,3,0,0,38,8,0,31,11,9,37,0,19,28,0,39,7,0,31,8,0,8,38,0,19,30,0,39,7,0,31,8,0,39,7,0,31,8,0,39,7,0,31,8,0,3,43,0,15,31,0,39,7,0,30,8,0,39,7,0,30,8,0,30,16,0,22,23,0,0,46,0,0,33,0,10,36,0,19,26,0,39,7,0,30,8,0,10,12,24,19,10,21
2019-03-04T23:59:55Z,33,45,38,30,45,33,38,30,9,13,45,33,0,0,0,0,23,22,16,24,1,44,1,32,0,5,0,3,5,0,4,0,1,35,9,2,29,11,6,39,0,18,30,0,37,8,0,30,8,0,4,41,0,17,30,0,37,8,0,30,8,0,37,8,0,30,8,0,37,8,0,30,8,0,3,42,0,13,31,0,37,8,0,30,8,0,37,8,0,30,8,0,30,15,0,21,22,0,0,45,0,0,33,0,12,33,0,19,23,0,37,8,0,30,8,0,12,9,24,19,8,21
2019-03-05T23:59:57Z,28,40,34,25,40,28,34,25,3,8,40,28,0,0,0,0,25,15,17,19,0,40,0,28,0,5,0,3,5,0,3,0,1,36,3,2,27,6,5,35,0,15,26,0,33,7,0,25,8,0,7,33,0,15,25,0,33,7,0,26,8,0,33,7,0,26,8,0,33,7,0,26,8,0,4,36,0,11,25,0,33,7,0,25,8,0,33,7,0,25,8,0,27,13,0,18,20,0,0,40,0,0,28,0,6,34,0,15,25,0,33,7,0,26,8,0,13,8,19,17,8,16
2019-03-06T23:59:53Z,34,47,40,31,47,34,40,31,6,10,47,34,0,0,0,0,27,20,19,23,0,47,0,34,0,5,0,3,5,0,3,0,0,41,6,1,33,9,7,40,0,17,31,0,38,9,0,31,10,0,8,39,0,18,29,0,38,9,0,31,10,0,38,9,0,31,10,0,38,9,0,31,10,0,4,43,0,13,31,0,38,9,0,30,10,0,38,9,0,30,10,0,30,17,0,20,24,0,0,47,0,0,34,0,9,38,0,17,28,0,38,9,0,30,10,0,13,11,23,20,10,19
2019-03-07T23:59:59Z,31,43,38,29,43,31,38,29,3,8,43,31,0,0,0,0,25,18,18,22,0,43,0,31,0,5,0,3,5,0,3,0,0,40,3,1,31,6,5,38,0,16,28,0,36,7,0,28,7,0,8,35,0,18,27,0,36,7,0,28,7,0,36,7,0,29,7,0,36,7,0,29,7,0,4,39,0,12,28,0,36,7,0,28,7,0,36,7,0,28,7,0,27,16,0,19,21,0,0,43,0,0,31,0,5,38,0,14,28,0,36,7,0,28,7,0,14,10,19,19,10,17
2019-03-08T23:59:58Z,28,41,35,26,41,28,35,26,2,7,41,28,0,0,0,0,25,16,18,19,0,41,0,28,0,5,0,3,5,0,3,0,0,39,2,1,27,6,8,33,0,15,25,0,34,7,0,26,7,0,6,35,0,15,24,0,34,7,0,26,7,0,34,7,0,26,7,0,34,7,0,26,7,0,4,37,0,9,26,0,34,7,0,25,7,0,34,7,0,25,7,0,24,17,0,16,19,0,0,41,0,0,28,0,6,35,0,14,25,0,34,7,0,25,7,0,13,10,18,15,10,15
2019-03-09T23:59:59Z,37,50,45,35,50,37,45,35,10,14,50,37,0,0,0,0,27,23,19,26,0,50,0,37,0,5,0,3,5,0,3,0,0,40,10,1,33,12,4,46,0,16,34,0,43,7,0,34,9,0,8,42,0,17,33,0,43,7,0,35,9,0,43,7,0,35,9,0,43,7,0,35,9,0,3,47,0,12,35,0,43,7,0,34,9,0,43,7,0,34,9,0,35,15,0,25,24,0,0,50,0,0,37,0,13,37,0,20,28,0,43,7,0,34,9,0,13,11,26,20,10,22
2019-03-10T23:59:58Z,31,44,39,29,44,31,39,29,8,11,44,31,0,0,0,0,24,20,17,21,0,44,0,31,0,5,0,3,5,0,3,0,0,36,8,1,30,9,8,36,0,18,27,0,37,7,0,28,7,0,3,41,0,16,29,0,37,7,0,29,7,0,37,7,0,29,7,0,37,7,0,29,7,0,3,41,0,13,29,0,37,7,0,29,7,0,37,7,0,29,9,0,28,16,0,20,22,0,0,44,0,0,31,0,10,34,0,15,24,0,37,7,0,28,7,0,12,10,22,19,9,18
2019-03-11T23:59:59Z,33,47,42,31,46,33,42,31,9,11,47,33,0,0,0,0,26,21,19,22,0,47,0,33,0,5,0,3,5,0,3,0,0,39,8,1,29,9,4,43,0,14,30,0,39,8,0,30,9,0,4,43,0,14,30,0,39,8,0,30,7,0,38,9,0,30,8,0,39,8,0,30,7,0,3,44,0,11,31,0,39,8,0,30,8,0,39,8,0,30,9,0,28,19,0,20,20,0,0,47,0,0,33,0,12,35,0,18,24,0,40,7,0,31,7,0,12,13,22,17,11,18
2019-03-12T23:59:53Z,38,53,48,36,53,38,48,36,13,16,53,38,0,0,0,0,27,26,19,28,0,53,0,38,0,5,0,3,5,0,3,0,0,40,13,1,34,13,6,47,0,19,35,0,42,11,0,34,15,0,8,45,0,20,35,0,46,7,0,36,10,0,46,7,0,36,10,0,46,7,0,36,10,0,2,51,0,14,37,0,46,7,0,36,10,0,45,8,0,35,12,0,33,20,0,26,29,0,0,53,0,0,38,0,16,37,0,22,28,0,45,8,0,35,12,0,13,11,29,21,10,23
2019-03-13T23:59:58Z,46,66,60,44,66,46,59,43,26,23,66,46,0,0,0,0,27,39,19,36,0,66,0,46,0,6,0,4,6,0,4,0,0,41,25,1,41,21,7,59,0,26,42,0,58,8,0,43,13,0,5,61,0,24,44,0,58,8,0,43,12,0,57,9,0,43,13,0,58,8,0,43,12,0,3,63,0,20,45,0,53,13,0,42,15,0,56,10,0,42,13,0,48,18,0,34,33,0,1,65,0,1,46,0,26,40,0,31,35,0,58,8,0,44,13,0,15,11,40,28,11,30
2019-03-14T23:59:59Z,44,64,59,42,64,44,58,42,28,23,64,44,0,0,0,0,23,41,18,36,0,64,0,44,0,5,0,3,5,0,3,0,0,36,28,1,40,22,8,56,0,28,40,0,51,13,0,42,17,0,6,58,0,27,41,0,57,7,0,42,11,0,51,13,0,41,16,0,51,13,0,41,18,0,3,61,0,21,43,0,47,17,0,42,19,0,49,15,0,42,19,0,45,19,0,32,34,0,0,64,0,0,44,0,27,37,0,28,32,0,49,15,0,41,19,0,12,12,40,27,12,30
2019-03-15T23:59:59Z,46,67,62,44,67,46,61,44,26,22,67,46,0,0,0,0,26,41,19,37,0,67,0,46,0,5,0,3,5,0,3,0,2,42,23,3,44,21,8,59,0,29,41,0,49,18,0,42,19,0,7,60,0,27,44,0,56,11,0,43,14,0,52,15,0,44,18,0,55,12,0,44,16,0,4,63,0,22,44,0,52,15,0,44,18,0,52,15,0,43,18,0,46,21,0,32,35,0,0,67,0,0,46,0,23,44,0,29,36,0,51,16,0,42,18,0,15,11,41,30,12,30
2019-03-16T23:59:56Z,43,64,58,40,64,43,57,40,24,20,64,43,0,0,0,0,26,38,19,34,0,64,0,43,0,5,0,3,5,0,3,0,5,40,19,6,37,18,6,58,0,22,39,0,49,15,0,37,17,0,7,57,0,23,39,0,53,11,0,39,14,0,48,16,0,40,19,0,53,11,0,39,14,0,5,59,0,18,40,0,47,17,0,38,19,0,52,12,0,39,14,0,42,22,0,28,32,0,0,64,0,0,43,0,21,43,0,27,35,0,53,11,0,40,15,0,15,11,38,25,10,27
2019-03-17T23:59:59Z,42,62,57,40,62,42,57,40,26,22,62,42,0,0,0,0,25,37,18,32,0,62,0,42,0,5,0,3,5,0,3,0,2,36,24,3,37,19,5,57,0,20,40,0,43,19,0,36,22,0,6,56,0,20,39,0,51,11,0,39,17,0,48,14,0,39,22,0,47,15,0,37,18,0,2,60,0,16,41,0,47,15,0,36,21,0,51,11,0,37,17,0,37,25,0,24,33,0,0,62,0,0,42,0,22,40,0,24,34,0,52,10,0,39,16,0,12,11,39,24,11,28
2019-03-18T23:59:57Z,40,59,53,37,57,40,50,37,25,21,59,40,0,0,0,0,22,37,17,31,0,59,0,40,0,5,0,3,5,0,3,0,4,33,22,5,33,17,5,53,1,18,37,1,45,14,0,35,16,0,6,51,2,19,38,2,46,11,2,36,16,2,45,13,1,38,17,1,50,7,2,37,12,1,5,53,1,16,37,1,45,12,2,37,17,2,47,12,0,36,15,0,34,25,0,25,31,0,1,58,0,1,40,0,25,33,1,27,30,1,50,8,1,38,13,1,13,10,36,22,10,27
2019-03-19T23:59:59Z,42,64,58,39,64,42,57,39,26,20,64,42,0,0,0,0,24,40,18,33,0,64,0,42,0,5,0,3,5,0,3,0,2,36,26,3,34,18,10,54,0,23,37,0,44,20,0,38,22,0,7,56,1,20,38,1,51,13,0,38,15,0,52,12,0,39,14,0,54,10,0,39,12,0,7,57,0,18,39,0,49,14,1,39,17,1,48,16,0,38,18,0,40,24,0,27,31,0,0,64,0,0,42,0,23,41,0,25,33,0,50,13,1,38,16,1,14,11,39,23,10,27
2019-03-20T23:59:58Z,42,63,58,40,63,42,57,40,23,20,63,42,0,0,0,0,27,36,18,32,0,63,0,42,0,5,0,3,5,0,3,0,0,40,23,2,38,18,7,56,0,20,38,0,46,17,0,36,18,0,7,56,0,21,39,0,54,9,0,38,16,0,49,14,0,37,17,0,51,12,0,38,19,0,4,59,0,17,40,0,48,15,0,38,21,0,50,13,0,37,16,0,39,24,0,30,32,0,0,63,0,0,42,0,15,48,0,22,36,0,51,12,0,38,16,0,14,9,40,25,9,28
2019-03-21T23:59:57Z,42,67,61,40,67,42,61,40,27,21,67,42,0,0,0,0,28,38,20,31,1,66,1,42,0,5,0,3,5,0,3,0,0,39,28,0,37,21,8,58,1,21,37,1,41,25,1,37,23,1,5,61,1,21,40,1,54,12,1,37,14,1,43,23,1,38,23,1,46,20,1,37,18,1,3,63,1,17,40,1,46,20,1,37,19,1,52,14,1,36,14,1,44,22,1,28,32,1,0,66,1,0,42,1,23,43,1,27,33,1,56,10,1,38,12,1,14,10,43,25,10,29
2019-03-22T23:59:59Z,45,65,59,42,65,45,58,42,23,21,65,45,0,0,0,0,28,37,19,34,0,65,0,45,0,5,0,3,5,0,3,0,4,42,19,4,40,16,9,56,0,23,40,0,47,18,0,39,22,0,6,59,0,21,42,0,53,12,0,41,17,0,51,14,0,40,20,0,56,9,0,41,16,0,5,60,0,18,42,0,51,14,0,39,18,0,52,13,0,40,17,0,34,31,0,25,36,0,0,65,0,0,45,0,22,43,0,26,34,0,53,12,0,42,17,0,16,9,40,27,10,29
2019-03-23T23:59:59Z,46,68,63,44,68,46,62,44,26,23,68,46,0,0,0,0,29,39,20,35,0,68,0,46,0,5,0,3,5,0,3,0,4,43,21,4,41,20,6,62,0,22,43,0,44,24,0,40,25,0,8,60,0,21,42,0,57,11,0,41,14,0,50,18,0,39,20,0,54,14,0,41,20,0,4,64,0,18,44,0,46,22,0,39,23,0,52,16,0,40,20,0,34,34,0,24,38,0,0,68,0,0,46,0,21,47,0,26,39,0,57,11,0,43,17,0,14,11,43,26,12,31
2019-03-24T23:59:57Z,44,65,59,41,65,44,58,41,26,22,65,44,0,0,0,0,26,39,18,33,0,65,0,44,0,5,0,3,5,0,3,0,7,39,19,8,38,18,9,56,0,23,39,0,47,18,0,39,19,0,8,57,0,23,40,0,52,13,0,40,17,0,48,17,0,38,18,0,47,18,0,38,20,0,5,60,0,18,41,0,52,13,0,39,15,0,52,13,0,40,15,0,31,34,0,24,33,0,0,65,0,0,44,0,20,45,0,22,36,0,51,14,0,40,17,0,14,12,39,23,12,27
2019-03-25T23:59:56Z,42,60,54,39,60,42,53,39,20,19,60,42,0,0,0,0,25,35,17,32,0,60,0,42,0,5,0,3,5,0,3,0,6,40,14,6,37,15,5,54,1,17,40,1,40,20,0,33,23,0,9,51,0,19,37,0,49,11,0,39,15,0,44,16,0,36,19,0,49,11,0,39,15,0,5,55,0,16,39,0,44,16,0,35,19,0,48,12,0,38,17,0,28,32,0,21,33,0,0,60,0,0,42,0,13,47,0,22,37,0,46,14,0,38,20,0,16,10,34,25,9,25
2019-03-26T23:59:57Z,42,60,54,39,60,42,53,39,20,19,60,42,0,0,0,0,25,35,17,32,0,60,0,42,0,5,0,3,5,0,3,0,6,40,14,6,37,15,5,54,1,17,40,1,40,20,0,33,23,0,9,51,0,19,37,0,49,11,0,39,15,0,44,16,0,36,19,0,49,11,0,39,15,0,5,55,0,16,39,0,44,16,0,35,19,0,48,12,0,38,17,0,28,32,0,21,33,0,0,60,0,0,42,0,13,47,0,22,37,0,46,14,0,38,20,0,16,10,34,25,9,25
2019-03-27T23:59:57Z,42,60,54,39,60,42,53,39,20,19,60,42,0,0,0,0,25,35,17,32,0,60,0,42,0,5,0,3,5,0,3,0,6,40,14,6,37,15,5,54,1,17,40,1,40,20,0,33,23,0,9,51,0,19,37,0,49,11,0,39,15,0,44,16,0,36,19,0,49,11,0,39,15,0,5,55,0,16,39,0,44,16,0,35,19,0,48,12,0,38,17,0,28,32,0,21,33,0,0,60,0,0,42,0,13,47,0,22,37,0,46,14,0,38,20,0,16,10,34,25,9,25
2019-03-28T23:59:57Z,42,60,54,39,60,42,53,39,20,19,60,42,0,0,0,0,25,35,17,32,0,60,0,42,0,5,0,3,5,0,3,0,6,40,14,6,37,15,5,54,1,17,40,1,40,20,0,33,23,0,9,51,0,19,37,0,49,11,0,39,15,0,44,16,0,36,19,0,49,11,0,39,15,0,5,55,0,16,39,0,44,16,0,35,19,0,48,12,0,38,17,0,28,32,0,21,33,0,0,60,0,0,42,0,13,47,0,22,37,0,46,14,0,38,20,0,16,10,34,25,9,25
2019-03-29T23:59:59Z,42,60,54,39,60,42,53,39,20,19,60,42,0,0,0,0,25,35,17,32,0,60,0,42,0,5,0,3,5,0,3,0,6,40,14,6,37,15,5,54,1,17,40,1,40,20,0,33,23,0,9,51,0,19,37,0,49,11,0,39,15,0,44,16,0,36,19,0,49,11,0,39,15,0,5,55,0,16,39,0,44,16,0,35,19,0,48,12,0,38,17,0,28,32,0,21,33,0,0,60,0,0,42,0,13,47,0,22,37,0,46,14,0,38,20,0,16,10,34,25,9,25
2019-03-30T23:59:59Z,42,60,54,39,60,42,53,39,20,19,60,42,0,0,0,0,25,35,17,32,0,60,0,42,0,5,0,3,5,0,3,0,6,40,14,6,37,15,5,54,1,17,40,1,40,20,0,33,23,0,9,51,0,19,37,0,49,11,0,39,15,0,44,16,0,36,19,0,49,11,0,39,15,0,5,55,0,16,39,0,44,16,0,35,19,0,48,12,0,38,17,0,28,32,0,21,33,0,0,60,0,0,42,0,13,47,0,22,37,0,46,14,0,38,20,0,16,10,34,25,9,25
2019-03-31T23:59:59Z,42,60,54,39,60,42,53,39,20,19,60,42,0,0,0,0,25,35,17,32,0,60,0,42,0,5,0,3,5,0,3,0,6,40,14,6,37,15,5,54,1,17,40,1,40,20,0,33,23,0,9,51,0,19,37,0,49,11,0,39,15,0,44,16,0,36,19,0,49,11,0,39,15,0,5,55,0,16,39,0,44,16,0,35,19,0,48,12,0,38,17,0,28,32,0,21,33,0,0,60,0,0,42,0,13,47,0,22,37,0,46,14,0,38,20,0,16,10,34,25,9,25
2019-04-01T23:59:59Z,50,69,63,47,69,50,61,46,25,22,69,50,0,0,0,0,28,41,21,37,0,69,0,50,0,6,0,4,5,0,3,0,0,46,23,2,47,18,14,55,0,29,41,0,59,10,0,45,13,0,15,54,0,30,42,0,61,8,0,46,14,0,60,9,0,46,14,0,62,7,0,46,13,0,11,58,0,23,43,0,61,8,0,46,15,0,61,8,0,46,14,0,45,24,0,32,37,0,0,69,0,0,50,0,33,36,0,31,32,0,59,10,0,46,15,0,22,8,39,32,10,28
2019-04-02T23:59:59Z,50,73,65,46,73,50,63,45,25,21,73,50,0,0,0,0,30,43,22,37,0,73,0,50,0,5,0,3,5,0,3,0,1,48,24,2,46,18,14,59,0,28,42,0,65,8,0,46,13,0,15,58,0,28,42,0,65,8,0,46,13,0,65,8,0,46,13,0,65,8,0,46,13,0,11,62,0,22,43,0,65,8,0,46,13,0,65,8,0,46,13,0,48,25,0,30,39,0,0,73,0,0,50,0,35,38,0,32,32,0,65,8,0,46,13,0,20,12,41,30,13,28
2019-04-03T23:59:59Z,49,67,61,47,67,49,60,46,23,23,67,49,0,0,0,0,30,37,22,37,0,67,0,49,0,5,0,3,5,0,3,0,0,44,23,0,45,22,8,59,0,26,43,0,59,8,0,45,13,0,8,59,0,26,44,0,59,8,0,46,13,0,59,8,0,46,13,0,59,8,0,46,13,0,6,61,0,22,45,0,59,8,0,46,13,0,59,8,0,46,13,0,48,19,0,35,35,0,0,67,0,0,49,0,29,38,0,33,32,0,59,8,0,45,13,0,17,10,40,31,12,31